Weather History for West Cameron, TX

Change the Weather History Date:

Tuesday, February 4, 2014

  Actual Average Record
Temperature  
Mean Temperature 59 °F -  
Max Temperature 68 °F - - ()
Min Temperature 50 °F - - ()
Degree Days  
Heating Degree Days 6    
Growing Degree Days 9 (Base 50)    
Moisture  
Dew Point -40 °F    
Average Humidity 4    
Maximum Humidity 4    
Minimum Humidity 4    
Precipitation  
Precipitation 0.00 in - - ()
Sea Level Pressure  
Sea Level Pressure 29.91 in    
Wind  
Wind Speed 20 mph (SSE)    
Max Wind Speed 30 mph    
Max Gust Speed 33 mph    
Visibility 4 miles    
Events Fog    
T = Trace of Precipitation, MM = Missing Value Source: NWS Daily Summary

Daily Weather History Graph

Daily Weather History Graph

Search for Another Location

Airport:

Trip Planner

Search our weather history database for the weather conditions in past years. The results will help you decide how hot, cold, wet, or windy it might be!

Date:

Astronomy

Feb. 04, 2014 Rise Set
Actual Time 6:59 AM CST 5:54 PM CST
Civil Twilight 6:35 AM CST 6:19 PM CST
Nautical Twilight 6:07 AM CST 6:47 PM CST
Astronomical Twilight 5:39 AM CST 7:15 PM CST
Moon 10:07 AM CST (2/4) 11:17 PM CST (2/4)
Length of Visible Light 11h 44m
Length of Day
10h 54m
Waxing Crescent, 29% of the Moon is Illuminated
Feb 4
Waxing Crescent
Feb 6
First Quarter
Feb 14
Full
Feb 22
Last Quarter
Mar 1
New

Hourly Weather History & Observations

Time (CST) Temp. Dew Point Humidity Pressure Visibility Wind Dir Wind Speed Gust Speed Precip Events Conditions
3:55 AM 57.2 °F - N/A% 29.90 in 1.8 mi ESE 27.6 mph - N/A   Overcast
4:15 AM 57.2 °F - N/A% 29.90 in 0.8 mi East 29.9 mph - N/A   Overcast
4:35 AM 57.2 °F - N/A% 29.90 in 0.5 mi ESE 26.5 mph - N/A   Overcast
4:55 AM 59.0 °F - N/A% 29.89 in 0.5 mi ESE 27.6 mph - N/A Fog Fog
5:15 AM 59.0 °F - N/A% 29.89 in 0.5 mi ESE 26.5 mph - N/A Fog Fog
5:35 AM 60.8 °F - N/A% 29.89 in 0.5 mi ESE 24.2 mph 31.1 mph N/A   Overcast
5:55 AM 60.8 °F - N/A% 29.89 in 0.5 mi ESE 21.9 mph - N/A   Overcast
6:15 AM 60.8 °F - N/A% 29.89 in 0.5 mi ESE 21.9 mph - N/A   Overcast
6:35 AM 60.8 °F - N/A% 29.90 in 0.5 mi ESE 20.7 mph - N/A Fog Fog
6:55 AM 60.8 °F - N/A% 29.90 in - ESE 17.3 mph - N/A   Overcast
7:15 AM 60.8 °F - N/A% 29.90 in 0.2 mi ESE 18.4 mph - N/A Fog Fog
7:35 AM 62.6 °F - N/A% 29.90 in 0.2 mi ESE 18.4 mph - N/A Fog Fog
7:55 AM 62.6 °F - N/A% 29.91 in 0.2 mi ESE 15.0 mph - N/A Fog Fog
8:15 AM 64.4 °F - N/A% 29.91 in 0.2 mi ESE 19.6 mph - N/A Fog Fog
8:35 AM 64.4 °F - N/A% 29.91 in 0.2 mi SE 18.4 mph - N/A Fog Fog
8:55 AM 64.4 °F - N/A% 29.92 in 0.5 mi SSE 8.1 mph - N/A Fog Fog
9:15 AM 66.2 °F - N/A% 29.91 in 1.2 mi SSE 19.6 mph - N/A   Overcast
9:35 AM 66.2 °F - N/A% 29.92 in 1.5 mi South 17.3 mph - N/A   Overcast
9:55 AM 66.2 °F - N/A% 29.92 in 0.2 mi SSE 11.5 mph - N/A Fog Fog
10:15 AM 66.2 °F - N/A% 29.92 in 0.8 mi South 18.4 mph - N/A   Overcast
10:35 AM 66.2 °F - N/A% 29.92 in 1.5 mi South 15.0 mph - N/A   Overcast
10:55 AM 66.2 °F - N/A% 29.91 in 2.0 mi South 15.0 mph - N/A   Overcast
11:15 AM 66.2 °F - N/A% 29.91 in 1.2 mi South 16.1 mph - N/A   Overcast
11:35 AM 66.2 °F - N/A% 29.89 in 3.0 mi South 20.7 mph - N/A   Mostly Cloudy
11:55 AM 66.2 °F -40.0 °F 4% 29.88 in 4.0 mi South 19.6 mph - N/A   Haze
12:15 PM 66.2 °F -40.0 °F 4% 29.87 in 3.0 mi South 19.6 mph - N/A   Haze
12:35 PM 66.2 °F -40.0 °F 4% 29.86 in 3.0 mi South 17.3 mph - N/A   Haze
12:55 PM 66.2 °F -40.0 °F 4% 29.85 in 2.5 mi South 17.3 mph - N/A   Haze
1:15 PM 66.2 °F -40.0 °F 4% 29.84 in 2.5 mi South 16.1 mph - N/A   Haze
1:35 PM 66.2 °F -40.0 °F 4% 29.83 in 2.0 mi South 13.8 mph - N/A   Haze
1:55 PM 66.2 °F - N/A% 29.82 in - South 15.0 mph - N/A   Unknown
2:00 PM 66.2 °F - N/A% 29.82 in - South 15.0 mph - N/A   Unknown
2:35 PM 66.2 °F -40.0 °F 4% 29.81 in 2.5 mi South 18.4 mph - N/A   Haze
2:55 PM 68.0 °F -40.0 °F 4% 29.80 in 2.5 mi South 20.7 mph - N/A   Haze
3:15 PM 68.0 °F -40.0 °F 4% 29.81 in 4.0 mi South 19.6 mph - N/A   Haze
3:35 PM 68.0 °F -40.0 °F 4% 29.81 in 3.0 mi South 20.7 mph - N/A   Haze
3:55 PM 66.2 °F -40.0 °F 4% 29.82 in 1.5 mi SSW 20.7 mph - N/A   Haze
4:15 PM 62.6 °F - N/A% 29.85 in 2.5 mi West 17.3 mph 24.2 mph N/A   Overcast
4:35 PM 59.0 °F - N/A% 29.87 in 1.8 mi WNW 12.7 mph - N/A   Overcast
4:55 PM 59.0 °F - N/A% 29.87 in 6.0 mi NW 6.9 mph 13.8 mph N/A   Haze
5:15 PM 59.0 °F - N/A% 29.87 in 9.0 mi Variable 5.8 mph 15.0 mph N/A   Overcast
5:35 PM 57.2 °F - N/A% 29.88 in 9.0 mi Variable 5.8 mph 17.3 mph N/A   Overcast
5:55 PM 57.2 °F - N/A% 29.89 in 10.0 mi Variable 4.6 mph 13.8 mph N/A   Overcast
6:15 PM 55.4 °F - N/A% 29.89 in 10.0 mi NNW 9.2 mph 16.1 mph N/A   Overcast
6:35 PM 55.4 °F - N/A% 29.89 in 10.0 mi NW 9.2 mph 15.0 mph N/A   Overcast
6:55 PM 55.4 °F - N/A% 29.91 in 10.0 mi Variable 6.9 mph 15.0 mph N/A   Overcast
7:15 PM 55.4 °F - N/A% 29.93 in 10.0 mi NW 9.2 mph 19.6 mph N/A   Overcast
7:35 PM 55.4 °F - N/A% 29.94 in 7.0 mi NNW 9.2 mph 17.3 mph N/A   Overcast
7:55 PM 55.4 °F - N/A% 29.95 in 9.0 mi NW 13.8 mph 20.7 mph N/A   Overcast
8:15 PM 55.4 °F - N/A% 29.96 in 10.0 mi NW 9.2 mph 19.6 mph N/A   Overcast
8:35 PM 55.4 °F - N/A% 29.97 in 10.0 mi NNW 15.0 mph 23.0 mph N/A   Overcast
8:55 PM 53.6 °F - N/A% 29.98 in 10.0 mi NNW 19.6 mph 27.6 mph N/A   Overcast
9:15 PM 53.6 °F - N/A% 29.99 in 10.0 mi NNW 23.0 mph - N/A   Overcast
9:35 PM 53.6 °F - N/A% 30.00 in 10.0 mi NNW 23.0 mph 29.9 mph N/A   Overcast
9:55 PM 53.6 °F - N/A% 30.01 in 10.0 mi NNW 29.9 mph - N/A   Overcast
10:15 PM 51.8 °F - N/A% 30.02 in 10.0 mi NNW 26.5 mph 32.2 mph N/A   Overcast
10:35 PM 51.8 °F - N/A% 30.03 in 10.0 mi NNW 26.5 mph 33.4 mph N/A   Overcast
10:55 PM 51.8 °F - N/A% 30.04 in 10.0 mi NNW 26.5 mph 33.4 mph N/A   Overcast
11:15 PM 51.8 °F - N/A% 30.04 in 10.0 mi NNW 28.8 mph - N/A   Overcast
11:35 PM 50.0 °F - N/A% 30.05 in 10.0 mi North 27.6 mph - N/A   Overcast
11:55 PM 50.0 °F - N/A% 30.06 in 10.0 mi North 26.5 mph - N/A   Overcast